Location: Audinghen
(50.8518°N, 1.6129°E)
Time: 10:41:21
(UTC+00:00)

IDEFIX/ARIANE 42P - Pass Details

Date: 07 August 2020
Orbit: 786 x 802 km, 98.4° (Epoch: 20 September)

Event Time Altitude Azimuth Distance (km) Brightness Sun altitude
Rises 03:48:27 0° 11° (N) 3,293 6.6 -6.3°
Reaches altitude 10° 03:50:48 10° 7° (N) 2,360 5.7 -6.0°
Maximum altitude 03:55:53 55° 291° (WNW) 951 2.8 -5.3°
Drops below altitude 10° 04:00:55 10° 215° (SW) 2,351 4.4 -4.7°
Enters shadow 04:02:44 - 212° (SSW) 3,061 5.0 -4.4°
